Preview of NWS' New Version of Forecast
This preview is not operational and should not be used for support decisions.

Regional Weather Roundup (RWR)

Issued by National Weather Service (NWS)

                            
000
ASUS43 KLSX 201557
RWRMO 

WEATHER SUMMARY FOR MISSOURI
NATIONAL WEATHER SERVICE SPRINGFIELD MO
1100 AM CDT THU JUN 20 2019

NOTE: "FAIR" INDICATES FEW OR NO CLOUDS BELOW 12,000 FEET WITH NO
       SIGNIFICANT WEATHER AND/OR OBSTRUCTIONS TO VISIBILITY.
       CURRENT SKY AND/OR WEATHER CONDITIONS ARE NOT AVAILABLE FOR
       CHILLICOTHE AND FARMINGTON.

MOZ001>031-035>038-043-044-053-054-201700-
...NORTHERN AND WESTERN MISSOURI...
  
CITY           SKY/WX    TMP DP  RH WIND       PRES   REMARKS
KANSAS CTY INT PTSUNNY   71  65  81 S10       29.79F                  
LEE'S SUMMIT   MOSUNNY   77  64  64 W10       29.84S                  
ST JOSEPH      SUNNY     73  65  75 S9        29.77F                  
CHILLICOTHE      N/A     71  66  84 S6        29.81F                  
     
$$
MOZ066>068-077>081-088>096-101>105-201700-
...SOUTHWEST MISSOURI...
  
CITY           SKY/WX    TMP DP  RH WIND       PRES   REMARKS
SPRINGFIELD    PTSUNNY   79  65  62 NW9       29.85R                  
JOPLIN         MOSUNNY   81  68  64 VRB5      29.85R                  
BRANSON        MOSUNNY   79  66  65 NW7       29.87R                  
               
$$
MOZ032>034-039>042-045>050-055>058-069>072-201700-
...CENTRAL MISSOURI...  
  
CITY           SKY/WX    TMP DP  RH WIND       PRES   REMARKS
COLUMBIA       NOT AVBL                                               
ROLLA          CLOUDY    71  63  75 W9        29.85R                  
SEDALIA        MOSUNNY   72  64  76 VRB3      29.85F                  
WARRENSBURG    MOSUNNY   73  63  68 CALM      29.82F                  
               
$$
MOZ051-052-059>065-201700-
...EAST CENTRAL MISSOURI...
  
CITY           SKY/WX    TMP DP  RH WIND       PRES   REMARKS
ST LOUIS INTL  PTSUNNY   72  61  68 NW8       29.80R                  
                   
$$
MOZ072>076-082>087-097>100-106>115-201700-
...SOUTH CENTRAL AND SOUTHEAST MISSOURI...
  
CITY           SKY/WX    TMP DP  RH WIND       PRES   REMARKS
CAPE GIRARDEAU FAIR      75  63  66 NW8       29.79R                  
POPLAR BLUFF   FAIR      79  69  71 NW8       29.79                   
WEST PLAINS    MOSUNNY   78  65  63 VRB3      29.85R                  
                                       
$$